Temperature
21 20 19 20 25 30 32 32 32 32 32 31 30 30 31 31 31 29 24 23 22 21 21 22 22 21 21 21 20 20 20 19 19 19 19 19 19 19 19 19 19 19 19 19 18 18 18 18 18
20 19 20 24 30 32 32 32 32 31 31 30 30 30 31 31 28 25 23 22 22 22 21 22 22 21 21 21 21 20 20 20 19 19 19 19 19 19 19 19 19 19 19 19 18 18 18 18 18
19 20 24 29 32 32 31 32 32 31 31 30 31 30 30 29 26 24 23 23 22 21 21 22 21 21 21 21 20 20 20 20 20 20 20 19 19 19 19 19 19 19 19 18 18 18 18 19 19
20 22 26 31 32 32 31 32 32 32 32 31 31 31 29 25 25 24 23 23 22 21 20 21 21 21 20 20 20 20 20 20 20 20 20 20 20 20 20 19 19 19 18 18 18 18 19 19 19
22 27 31 32 33 32 32 32 31 32 32 31 31 31 29 24 24 23 23 23 22 22 21 20 21 20 20 20 20 20 20 20 20 20 20 20 20 20 19 19 19 19 18 18 18 19 19 19 19
26 29 31 32 32 32 33 32 32 32 32 31 31 31 28 23 23 23 23 22 22 22 21 19 20 20 20 20 20 20 20 20 20 20 20 20 20 20 19 19 19 19 19 19 19 19 19 19 19
28 31 31 32 32 32 32 32 32 32 32 31 30 31 28 24 23 23 22 22 22 22 21 19 19 19 19 19 19 20 20 20 20 20 20 20 20 20 19 19 19 19 19 19 19 19 19 19 19
27 31 31 32 31 32 32 32 32 31 31 29 29 31 29 24 23 22 21 21 21 20 20 19 19 18 18 19 19 20 20 20 20 20 20 20 20 20 20 19 19 19 19 19 19 19 19 19 19
27 30 31 31 30 31 32 31 31 31 30 29 28 27 26 23 22 22 21 20 20 20 19 19 19 19 19 18 18 19 19 19 19 19 20 20 19 19 19 19 19 19 19 19 19 19 19 19 18
28 30 31 31 31 31 31 30 30 31 30 28 26 24 23 22 22 22 21 20 20 19 19 20 20 20 19 19 19 19 19 19 19 18 18 19 18 18 18 18 19 19 19 19 19 18 18 18 17
29 30 31 30 30 30 30 29 28 29 28 25 25 24 23 22 22 22 21 21 20 20 20 20 20 20 20 20 20 19 19 19 19 19 19 19 18 18 18 18 18 18 18 18 18 18 17 17 17
29 30 29 29 29 29 29 28 26 24 22 21 22 23 22 22 22 22 21 21 20 20 19 19 19 19 20 19 19 19 19 18 18 18 18 18 18 18 18 18 18 18 18 17 18 18 17 17 17
29 29 29 29 28 27 27 26 24 21 20 20 20 20 21 21 21 20 20 19 19 19 18 18 18 18 18 19 18 18 18 17 17 17 18 18 18 18 18 18 18 17 17 17 17 17 17 17 17
29 29 28 28 27 26 26 24 23 20 19 19 18 18 18 18 18 18 18 17 17 17 17 17 17 18 18 18 18 18 17 17 17 17 17 17 17 17 17 17 17 17 17 17 17 17 17 17 17
28 29 29 28 27 26 27 24 21 19 19 18 17 17 17 16 16 16 16 17 16 16 17 17 17 17 17 17 17 17 17 16 16 16 16 16 17 17 17 17 17 17 17 17 17 17 17 17 17
30 30 29 27 27 26 27 23 20 19 19 18 18 17 16 16 16 16 16 16 16 16 16 16 16 16 17 17 17 16 16 16 16 16 16 16 16 16 16 17 17 17 17 17 17 17 17 17 17
30 30 29 27 27 27 27 22 20 19 19 18 18 17 17 16 16 16 16 16 16 16 16 16 16 16 16 16 16 16 16 16 15 15 15 15 15 15 16 16 16 17 17 17 17 17 17 17 17
29 29 29 27 26 26 24 21 21 20 19 19 18 18 17 17 16 16 16 16 16 16 16 16 16 16 16 16 16 16 15 15 15 15 15 15 15 15 15 16 16 16 16 16 16 16 16 16 16
29 29 28 26 25 25 23 22 21 20 20 19 18 18 18 17 17 16 16 16 16 16 16 16 17 16 16 16 15 15 15 15 15 15 15 15 15 15 15 15 16 16 16 16 16 16 16 16 16
29 29 28 26 25 24 23 22 22 21 20 19 19 19 18 18 17 17 17 17 16 16 16 16 16 16 16 16 15 15 15 15 15 15 15 15 15 15 15 15 15 15 15 16 16 16 16 16 16
29 29 28 26 24 25 24 23 22 22 20 19 19 18 18 18 18 17 17 17 16 16 16 16 15 15 15 15 15 15 15 15 15 15 15 15 15 15 15 16 15 15 15 15 16 15 15 16 16
28 29 28 26 25 25 25 24 23 22 22 21 20 19 18 18 18 17 17 17 16 16 15 15 15 15 15 14 14 14 14 14 14 14 14 14 15 15 15 15 15 15 15 15 15 15 15 15 16
28 28 28 27 27 26 26 25 23 23 22 22 21 19 19 18 18 17 17 16 16 15 15 14 14 14 14 14 14 13 14 14 14 14 14 14 14 14 15 15 15 15 15 15 15 15 15 15 16
28 28 27 28 28 26 26 25 22 23 22 22 21 19 18 18 18 17 17 16 16 15 15 14 13 13 13 13 13 13 13 13 13 13 13 13 14 14 14 14 14 15 15 15 15 15 15 15 15
28 27 27 26 26 25 25 25 22 22 22 21 21 20 19 18 18 17 17 16 15 15 14 14 13 12 12 12 12 12 12 12 12 12 13 13 13 13 13 13 14 14 14 14 14 15 15 15 15
27 28 26 25 25 26 25 23 21 21 20 20 20 19 19 18 18 17 16 16 15 14 14 13 12 12 12 12 11 11 11 12 12 12 12 12 13 13 13 13 13 13 13 13 14 14 14 14 14
27 27 27 26 26 25 24 22 20 20 20 20 20 19 19 18 17 17 16 15 15 14 13 13 12 11 11 11 11 11 11 11 11 11 11 12 12 12 12 12 12 12 12 12 13 13 13 13 13
27 26 27 26 24 24 25 24 22 21 21 21 20 19 19 18 17 16 15 15 14 13 13 12 11 11 10 10 10 10 10 10 10 10 10 10 11 11 11 11 11 11 12 12 12 12 12 12 12
26 26 26 26 25 24 24 24 22 21 21 21 20 19 18 17 16 16 15 14 13 13 12 11 11 10 10 9 9 8 8 8 9 9 9 9 10 10 10 10 10 11 11 11 11 11 11 11 12
25 25 25 25 24 24 24 24 21 21 21 20 19 18 17 16 15 15 14 13 12 12 11 11 10 9 9 8 8 8 8 8 8 8 8 8 8 9 9 10 10 10 11 11 11 11 11 11 11
Wind_Speed
19 16 9 5 5 4 8 8 7 8 5 4 2 3 6 7 8 5 4 9 14 19 21 23 20 19 17 16 15 14 13 13 13 13 13 13 12 11 11 11 11 10 9 8 8 8 8 8 7
14 11 6 5 5 5 8 9 9 8 5 3 1 3 5 5 5 4 5 11 16 18 20 20 20 18 17 16 15 14 13 12 11 12 12 11 11 10 10 10 10 10 9 8 8 8 8 8 7
11 8 5 5 4 7 8 10 9 6 2 2 2 3 4 5 4 3 8 14 16 17 17 19 20 17 16 15 14 13 13 12 11 11 11 11 10 10 10 10 10 10 9 9 9 8 8 8 7
6 5 5 7 5 7 7 10 8 6 3 2 3 3 4 6 4 7 13 15 16 16 16 19 18 16 15 14 13 13 12 12 11 11 11 11 11 11 11 11 10 10 9 9 10 9 8 8 8
5 5 7 6 3 6 6 8 7 6 5 4 3 4 6 6 8 12 13 14 15 16 14 19 17 16 15 14 13 12 11 11 11 11 11 10 10 11 11 12 12 11 9 8 8 8 8 8 8
4 5 8 7 4 4 6 9 8 7 5 4 3 4 6 7 10 13 13 12 13 14 13 17 16 14 13 12 12 11 11 11 11 11 11 10 10 9 9 10 10 10 9 9 8 9 9 9 9
6 6 8 8 6 2 8 11 10 10 8 7 4 3 7 10 11 13 13 11 12 12 11 12 15 14 13 11 11 11 11 11 11 12 12 12 11 10 10 10 10 10 10 10 10 10 11 11 11
5 6 9 7 5 4 9 11 11 11 8 6 5 5 5 11 13 15 14 12 11 10 10 10 10 11 12 13 13 12 12 13 13 13 14 13 13 13 13 13 13 13 12 12 12 12 13 13 14
5 7 10 7 5 6 10 12 12 8 6 8 10 9 7 15 16 16 15 14 12 11 10 9 9 9 9 9 11 13 13 15 15 15 16 15 14 16 15 18 16 15 15 15 15 15 15 15 16
6 10 8 5 6 8 10 10 12 8 8 11 10 8 8 13 14 15 15 15 14 13 12 10 10 9 9 8 8 10 12 14 16 15 15 16 14 14 14 12 15 16 17 17 17 17 16 17 15
6 9 7 7 8 8 9 6 10 10 9 14 12 4 6 9 10 11 12 13 13 13 11 11 9 8 7 6 6 7 9 10 14 16 16 15 14 13 13 11 13 16 18 17 17 18 17 16 14
8 9 9 10 8 8 7 4 6 13 10 11 9 5 6 8 8 9 10 11 11 10 9 7 5 3 4 4 5 6 7 8 9 12 16 14 10 11 10 9 11 11 12 13 13 11 14 15 15
9 7 6 6 5 2 2 5 8 12 11 11 12 12 11 10 9 9 8 7 6 5 4 2 1 3 4 4 6 6 7 9 11 11 13 15 11 12 11 9 10 12 12 11 11 12 13 13 14
3 5 3 3 5 7 10 9 7 10 11 12 13 14 14 13 12 10 8 7 6 5 5 5 6 7 7 6 6 7 9 9 12 12 14 15 13 11 11 12 11 11 12 12 11 12 12 12 12
6 4 7 7 6 8 7 11 9 8 9 11 13 13 14 13 13 12 10 9 9 8 7 6 6 7 8 8 8 8 9 11 11 11 14 14 13 12 11 11 10 10 11 12 11 12 10 12 13
5 7 6 7 3 3 4 7 8 6 8 10 10 11 11 11 11 10 9 8 7 6 5 6 6 7 7 7 8 8 9 10 10 10 11 12 12 11 9 9 9 9 9 8 9 10 10 11 11
5 2 4 7 7 3 5 8 7 7 8 9 9 10 10 10 10 9 8 7 6 5 5 5 5 6 7 8 8 9 9 9 8 8 8 8 7 7 6 6 6 7 7 8 9 9 9 10 10
0 1 2 5 7 8 10 10 8 8 9 9 9 9 9 10 10 9 8 8 7 7 6 6 6 8 8 8 7 7 8 7 6 6 6 6 4 4 4 4 5 6 6 7 8 8 8 8 8
3 3 1 7 5 7 10 10 8 7 8 8 8 8 9 10 9 9 9 9 8 8 8 8 9 9 9 8 9 9 9 8 7 5 5 5 5 5 3 4 4 5 6 8 8 8 8 8 7
5 4 4 7 6 5 9 10 8 7 7 7 7 8 8 8 8 8 8 8 9 9 9 9 10 10 10 9 9 8 10 8 7 6 6 6 6 6 5 4 5 6 7 9 8 7 8 8 7
5 4 1 7 8 9 10 8 8 8 8 7 7 6 6 6 5 5 6 7 8 9 10 10 10 10 10 11 10 10 9 8 7 8 7 8 8 7 6 6 7 8 9 9 9 9 10 9 8
4 1 2 9 10 7 10 5 8 8 7 6 5 5 4 3 3 4 6 8 10 10 10 10 11 11 11 11 11 12 11 11 10 8 8 8 7 7 6 6 7 8 9 9 10 11 9 10 9
3 2 3 9 8 5 8 5 8 8 6 5 4 2 1 1 4 6 9 10 11 12 12 11 11 12 12 12 12 12 13 11 10 10 9 9 7 6 5 5 6 7 8 9 11 9 11 10 10
1 3 5 8 9 7 3 5 6 6 4 4 4 2 2 4 6 8 10 12 12 12 12 11 11 12 13 14 14 13 14 14 14 12 11 9 7 6 5 4 4 5 6 7 9 10 12 11 11
4 8 7 6 6 2 3 2 5 5 2 1 2 3 4 6 8 10 12 14 13 13 12 12 13 14 15 15 15 15 15 15 15 14 12 10 9 7 5 5 4 4 5 6 7 9 11 12 12
3 6 6 8 7 3 3 2 5 3 1 2 3 4 5 8 10 12 14 14 13 13 13 14 15 16 16 16 15 15 15 14 13 13 13 13 11 10 7 7 6 6 5 5 6 7 9 10 12
2 4 6 7 7 7 1 6 5 3 3 3 4 6 8 10 12 14 14 14 14 14 15 16 17 17 17 17 16 15 15 14 15 15 15 14 13 12 11 10 9 8 7 6 6 6 7 8 10
5 4 5 6 7 7 3 3 3 3 3 4 6 8 10 12 14 16 15 15 15 16 17 17 17 17 17 17 16 15 16 16 15 15 16 16 16 15 14 14 13 11 10 9 8 7 7 7 8
3 3 4 4 5 7 8 3 4 1 3 6 8 10 13 15 16 16 15 16 17 17 17 18 18 18 18 17 17 17 17 17 16 16 16 15 16 16 16 16 16 15 14 12 10 10 9 9 9
5 5 5 5 4 5 9 3 7 2 4 7 10 12 14 16 16 16 17 17 17 18 18 18 18 18 18 18 18 18 18 17 17 17 17 16 16 16 17 17 17 17 17 15 14 13 11 11 11
Wind_Direction
159 165 180 203 236 230 39 35 17 11 16 19 356 304 331 337 340 2 73 142 149 149 147 154 157 160 161 158 154 151 150 149 150 153 157 158 160 161 161 161 162 162 161 158 155 149 141 135 131
163 167 199 234 272 18 43 25 14 12 4 354 322 288 314 358 20 48 112 140 151 150 149 155 153 158 160 159 157 155 153 153 156 159 162 165 167 168 169 168 168 168 168 165 160 156 149 142 138
166 199 249 255 313 11 12 10 4 356 8 331 352 350 354 16 36 68 119 143 150 146 148 145 153 157 159 160 159 158 158 159 162 167 170 172 176 179 180 179 177 177 178 170 163 159 155 151 148
185 223 240 259 332 33 11 4 358 348 25 28 350 55 74 42 34 100 128 146 147 147 153 145 155 156 158 160 161 162 163 165 169 173 176 179 183 186 189 187 185 188 184 171 165 162 159 159 161
236 258 259 268 354 34 23 8 358 353 9 19 5 43 80 69 85 115 134 145 149 153 152 147 156 156 158 161 164 166 169 174 178 181 184 187 189 193 195 193 193 196 188 176 172 174 177 180 182
242 259 275 299 354 21 29 8 355 1 8 19 11 50 85 108 118 127 135 147 149 153 152 142 154 158 160 164 168 172 177 183 188 191 194 197 200 203 204 201 199 199 196 194 194 195 196 198 199
269 277 288 301 318 353 12 359 1 353 11 30 11 44 112 125 128 133 134 141 146 151 149 148 164 168 168 170 176 181 186 191 195 199 202 204 207 211 215 215 214 213 210 209 209 209 209 207 207
269 275 272 280 302 331 2 356 5 359 19 31 9 17 99 136 138 134 131 133 136 144 151 153 170 174 181 183 183 191 198 200 202 206 208 209 212 215 218 222 218 223 223 220 218 217 216 215 214
247 257 271 289 310 324 350 349 356 356 19 43 38 28 78 135 141 140 135 135 139 148 157 161 165 173 186 197 186 198 207 211 211 213 212 215 221 220 214 221 216 221 228 229 228 226 225 225 222
234 261 279 312 309 314 330 345 349 340 15 22 19 46 110 143 152 153 148 147 150 156 162 168 171 175 188 199 198 214 221 218 221 226 217 218 225 232 232 211 210 224 233 236 235 236 234 233 233
237 265 286 282 291 303 310 342 10 357 10 0 349 22 133 149 158 155 151 153 154 160 167 174 177 184 199 206 217 225 234 233 230 230 228 228 228 229 233 229 217 225 231 236 231 229 233 231 233
248 263 273 282 299 299 307 329 39 36 20 6 17 66 115 134 138 144 144 144 152 161 167 172 176 196 234 262 253 245 248 252 253 244 238 234 232 231 229 229 233 230 229 231 239 236 235 236 236
247 270 290 297 302 341 88 84 75 43 33 40 54 66 78 88 99 102 109 120 131 136 138 112 357 328 319 310 300 289 280 272 267 265 253 245 241 237 231 229 232 238 241 235 234 241 241 239 238
280 291 308 32 102 110 103 82 66 41 45 54 61 64 65 67 68 71 71 70 65 58 44 17 355 342 333 324 314 302 290 282 276 270 261 252 248 245 239 234 232 236 241 245 245 246 247 246 246
269 233 129 77 120 143 123 69 51 45 61 63 62 60 57 54 54 52 48 45 41 34 21 359 344 344 338 326 315 302 294 290 285 280 270 257 250 247 242 240 238 239 240 242 245 250 250 248 245
221 204 139 74 79 166 226 76 53 52 70 67 65 66 65 58 56 53 49 44 39 28 14 357 346 341 332 321 311 305 299 294 289 287 277 265 255 249 246 241 243 244 245 240 240 244 244 245 247
193 174 113 95 50 108 96 92 73 66 74 70 66 65 65 64 58 54 51 50 41 32 23 15 0 349 337 324 312 305 303 298 292 293 286 279 272 266 254 246 249 249 245 241 244 237 240 243 242
108 259 112 88 65 91 100 102 87 78 80 76 72 71 70 68 60 56 54 55 51 43 36 25 16 6 346 337 324 315 308 305 302 303 296 289 295 307 287 259 251 249 245 239 237 242 238 246 240
292 278 105 108 109 90 103 102 92 88 89 89 87 85 82 77 73 65 61 56 54 45 36 25 17 10 357 352 342 334 325 316 311 313 326 323 321 325 311 275 266 246 245 245 238 231 230 235 235
246 249 136 126 135 132 124 110 101 95 92 93 98 95 89 86 77 64 54 47 40 34 23 15 12 7 355 354 336 327 321 315 317 324 328 328 321 307 294 273 261 249 244 243 241 230 242 237 225
245 274 181 157 151 155 145 132 129 119 115 112 107 100 91 80 66 47 28 20 15 12 4 359 353 346 346 339 332 335 328 321 330 334 333 335 329 317 293 269 258 253 247 240 234 228 231 240 229
265 339 225 169 181 188 215 188 155 146 141 135 129 121 107 79 31 5 355 353 352 350 345 343 338 334 330 323 327 330 326 327 331 328 331 329 328 328 317 285 264 255 249 246 237 229 233 238 238
351 357 225 201 223 205 210 225 155 168 169 159 158 152 128 346 338 337 337 338 336 334 334 333 332 328 324 318 311 306 309 316 317 320 318 316 315 315 318 310 286 265 256 249 245 237 231 232 240
191 208 201 217 233 229 191 245 155 168 171 172 185 207 267 304 317 325 327 328 328 328 329 330 333 329 325 318 311 302 300 301 303 304 306 304 304 297 293 295 297 285 273 261 252 245 233 236 238
240 258 258 244 242 225 146 237 110 115 129 222 238 249 277 301 313 321 326 328 326 324 325 327 329 327 324 319 314 308 301 296 288 288 292 292 293 289 280 278 277 280 282 279 270 256 251 239 233
329 303 309 308 309 317 174 143 116 120 154 249 260 277 287 303 319 322 326 325 322 320 321 323 325 322 320 319 317 312 305 296 294 295 295 290 283 282 280 260 252 252 257 265 270 269 261 254 242
323 350 342 297 293 292 156 129 141 167 210 241 265 282 295 311 317 320 323 323 322 319 318 320 321 320 320 318 315 307 306 306 302 298 286 281 277 274 263 252 246 239 236 240 248 257 263 265 257
33 356 315 320 324 311 297 203 160 178 257 267 283 297 307 314 318 322 322 322 322 319 318 318 318 317 316 314 314 313 312 306 301 296 295 290 285 277 270 260 251 243 233 226 229 240 243 250 257
29 28 350 332 336 319 320 7 97 24 307 301 304 310 316 320 322 322 321 322 321 319 319 319 317 316 315 315 314 311 308 306 302 295 290 287 283 280 271 260 254 249 241 232 225 234 231 235 242
50 22 353 334 339 316 309 358 114 356 305 301 308 317 321 321 321 320 321 322 320 320 319 317 317 315 314 314 312 309 307 305 302 299 298 294 286 279 273 266 258 251 246 239 233 234 234 232 234
Height
1522 1523 1526 1528 1522 1506 1501 1498 1495 1494 1492 1495 1497 1496 1494 1495 1497 1504 1506 1504 1506 1509 1510 1513 1517 1520 1523 1526 1528 1531 1533 1535 1537 1539 1541 1542 1543 1544 1545 1546 1547 1548 1549 1550 1551 1553 1554 1554 1555
1524 1525 1528 1525 1508 1503 1503 1497 1495 1496 1497 1498 1497 1497 1496 1496 1502 1504 1504 1505 1508 1511 1513 1515 1518 1521 1524 1527 1529 1532 1534 1536 1538 1539 1541 1542 1543 1544 1545 1546 1547 1548 1549 1551 1552 1553 1554 1554 1555
1526 1527 1526 1513 1500 1504 1505 1496 1496 1496 1497 1497 1497 1498 1498 1501 1504 1505 1506 1507 1511 1514 1516 1517 1520 1523 1525 1528 1530 1533 1535 1536 1538 1539 1540 1541 1543 1544 1545 1546 1547 1548 1549 1550 1552 1553 1553 1554 1555
1528 1527 1523 1508 1500 1499 1500 1497 1497 1495 1494 1496 1496 1497 1501 1506 1506 1507 1506 1509 1513 1516 1519 1518 1521 1524 1527 1529 1531 1533 1535 1536 1538 1539 1540 1541 1542 1543 1544 1546 1547 1548 1549 1550 1551 1552 1553 1554 1555
1527 1523 1509 1500 1497 1497 1497 1498 1497 1494 1493 1495 1496 1496 1502 1507 1506 1507 1509 1512 1515 1518 1521 1520 1522 1525 1527 1530 1532 1533 1535 1536 1537 1538 1539 1541 1542 1543 1544 1545 1546 1547 1549 1550 1551 1552 1553 1554 1555
1525 1516 1507 1502 1498 1498 1496 1497 1495 1494 1494 1496 1496 1496 1504 1507 1508 1509 1511 1514 1518 1520 1523 1522 1524 1526 1528 1530 1532 1533 1535 1536 1537 1538 1539 1540 1541 1542 1543 1544 1545 1546 1548 1549 1550 1550 1551 1553 1553
1521 1511 1506 1503 1501 1499 1498 1497 1496 1494 1493 1496 1498 1497 1504 1508 1508 1510 1512 1515 1519 1522 1524 1524 1525 1526 1528 1530 1532 1533 1534 1535 1536 1537 1538 1539 1540 1541 1542 1543 1544 1545 1546 1547 1548 1549 1549 1550 1551
1519 1512 1504 1501 1503 1501 1499 1498 1498 1497 1497 1500 1500 1498 1502 1507 1508 1509 1511 1514 1517 1520 1523 1524 1527 1528 1529 1530 1531 1533 1533 1534 1535 1535 1536 1537 1538 1539 1540 1541 1542 1543 1543 1544 1545 1546 1547 1548 1549
1519 1512 1504 1501 1505 1502 1501 1500 1500 1499 1499 1501 1503 1504 1506 1506 1507 1509 1510 1513 1515 1518 1521 1524 1526 1527 1529 1530 1531 1531 1532 1532 1532 1533 1533 1534 1536 1537 1537 1538 1539 1540 1541 1542 1543 1544 1544 1545 1546
1514 1507 1501 1503 1504 1503 1503 1503 1503 1500 1499 1503 1505 1507 1507 1508 1509 1510 1511 1512 1514 1517 1519 1521 1524 1525 1527 1528 1529 1529 1530 1530 1530 1531 1531 1531 1533 1534 1536 1536 1535 1537 1538 1538 1539 1540 1541 1542 1544
1509 1504 1502 1504 1504 1504 1503 1504 1506 1503 1504 1510 1508 1508 1509 1510 1511 1512 1514 1515 1516 1517 1519 1521 1523 1524 1526 1526 1526 1526 1527 1527 1527 1526 1526 1527 1528 1529 1530 1532 1532 1532 1534 1535 1536 1537 1537 1539 1540
1507 1504 1505 1504 1503 1504 1504 1505 1508 1512 1515 1514 1511 1510 1511 1512 1513 1514 1515 1516 1517 1518 1520 1522 1522 1522 1523 1523 1523 1522 1523 1523 1524 1523 1522 1522 1522 1523 1524 1525 1528 1529 1530 1530 1532 1532 1534 1534 1535
1505 1503 1503 1503 1503 1505 1506 1508 1513 1517 1518 1516 1514 1512 1513 1514 1515 1517 1518 1518 1519 1519 1520 1520 1520 1520 1520 1519 1519 1520 1519 1519 1519 1518 1517 1516 1517 1517 1518 1518 1520 1523 1525 1525 1526 1527 1528 1529 1530
1503 1503 1503 1503 1504 1506 1507 1511 1516 1520 1520 1519 1517 1516 1516 1517 1518 1518 1519 1519 1519 1519 1519 1519 1519 1519 1518 1517 1516 1515 1515 1514 1513 1512 1511 1510 1510 1511 1511 1512 1513 1515 1518 1520 1520 1521 1522 1523 1524
1503 1500 1499 1503 1504 1506 1505 1514 1521 1523 1522 1522 1521 1520 1520 1520 1520 1520 1520 1520 1520 1520 1520 1520 1519 1518 1516 1515 1514 1512 1511 1509 1507 1505 1503 1502 1502 1503 1504 1505 1507 1508 1510 1512 1514 1515 1516 1517 1518
1496 1492 1496 1504 1504 1506 1504 1519 1525 1525 1524 1524 1524 1524 1524 1523 1523 1523 1522 1522 1521 1521 1520 1520 1519 1517 1515 1513 1511 1509 1507 1504 1501 1498 1496 1495 1494 1495 1496 1498 1500 1502 1504 1506 1508 1509 1511 1511 1512
1490 1493 1496 1503 1504 1503 1505 1522 1527 1526 1525 1526 1526 1527 1527 1526 1526 1525 1525 1524 1523 1522 1521 1519 1518 1516 1514 1512 1509 1507 1504 1500 1496 1493 1490 1488 1487 1488 1489 1491 1494 1496 1499 1501 1503 1504 1505 1506 1507
1497 1494 1497 1503 1506 1505 1512 1523 1526 1527 1527 1528 1529 1529 1529 1529 1529 1528 1527 1526 1524 1523 1522 1520 1518 1516 1513 1511 1508 1506 1503 1499 1494 1490 1486 1484 1484 1484 1484 1486 1489 1491 1494 1496 1498 1499 1500 1502 1503
1494 1495 1498 1506 1510 1511 1517 1523 1526 1528 1528 1529 1530 1531 1531 1531 1531 1530 1529 1528 1526 1524 1522 1520 1518 1515 1513 1510 1508 1505 1502 1498 1494 1490 1486 1484 1483 1482 1481 1483 1485 1488 1490 1492 1495 1496 1497 1499 1500
1495 1495 1499 1507 1511 1513 1518 1523 1525 1528 1530 1530 1531 1532 1532 1533 1533 1532 1531 1529 1527 1525 1523 1520 1518 1515 1513 1510 1507 1504 1500 1497 1494 1491 1488 1486 1483 1481 1481 1481 1483 1485 1487 1489 1491 1491 1494 1496 1497
1492 1493 1495 1504 1510 1511 1514 1522 1523 1526 1530 1532 1532 1533 1533 1533 1533 1532 1531 1529 1527 1525 1522 1520 1517 1514 1511 1508 1507 1504 1500 1497 1494 1490 1487 1485 1483 1481 1480 1480 1481 1483 1484 1486 1487 1489 1490 1493 1494
1494 1489 1492 1500 1507 1507 1508 1519 1520 1522 1526 1529 1531 1533 1533 1534 1533 1532 1530 1528 1526 1524 1521 1518 1515 1512 1509 1507 1505 1502 1499 1496 1492 1489 1486 1483 1481 1479 1478 1478 1479 1480 1482 1483 1485 1486 1487 1489 1491
1493 1491 1491 1494 1496 1501 1504 1509 1519 1519 1522 1525 1529 1531 1532 1532 1532 1530 1529 1527 1524 1522 1519 1516 1513 1510 1507 1504 1502 1499 1497 1494 1491 1488 1484 1481 1479 1477 1476 1475 1475 1476 1477 1479 1481 1482 1484 1486 1487
1493 1494 1493 1491 1490 1505 1502 1507 1522 1517 1520 1523 1527 1530 1531 1531 1530 1529 1527 1525 1522 1519 1516 1513 1510 1507 1504 1501 1498 1496 1493 1490 1488 1485 1483 1480 1478 1476 1474 1472 1472 1472 1473 1474 1475 1477 1479 1480 1482
1492 1495 1502 1505 1504 1506 1501 1506 1523 1519 1521 1523 1526 1528 1529 1529 1528 1527 1525 1522 1519 1516 1513 1510 1507 1503 1500 1497 1494 1492 1489 1486 1483 1482 1480 1477 1476 1474 1472 1470 1469 1468 1468 1468 1469 1471 1473 1475 1476
1493 1493 1505 1515 1509 1501 1502 1511 1522 1522 1525 1526 1526 1527 1528 1527 1526 1524 1522 1519 1516 1513 1510 1507 1503 1499 1496 1493 1489 1486 1484 1482 1480 1478 1475 1474 1472 1471 1469 1467 1466 1465 1464 1464 1464 1465 1466 1468 1470
1494 1494 1493 1499 1499 1506 1506 1516 1523 1524 1524 1524 1525 1525 1525 1525 1524 1522 1519 1516 1513 1510 1506 1503 1499 1495 1491 1487 1484 1481 1478 1476 1473 1471 1469 1468 1467 1466 1464 1463 1462 1461 1460 1460 1459 1459 1460 1461 1463
1497 1498 1496 1501 1514 1514 1505 1508 1517 1519 1520 1521 1522 1522 1522 1522 1521 1518 1516 1513 1510 1506 1502 1499 1494 1490 1486 1482 1478 1475 1472 1469 1467 1464 1463 1461 1459 1459 1458 1457 1457 1456 1455 1455 1455 1455 1455 1455 1456
1501 1502 1502 1501 1507 1516 1516 1511 1512 1516 1518 1519 1519 1520 1520 1519 1517 1515 1512 1509 1506 1502 1498 1494 1489 1485 1480 1476 1472 1468 1464 1462 1459 1457 1455 1453 1451 1450 1450 1450 1450 1450 1450 1450 1449 1450 1450 1450 1450
1505 1507 1505 1511 1515 1513 1514 1512 1513 1516 1518 1519 1519 1519 1518 1517 1514 1511 1508 1505 1501 1497 1493 1489 1484 1480 1475 1471 1466 1462 1458 1454 1451 1449 1447 1445 1443 1442 1441 1441 1441 1442 1443 1443 1444 1444 1445 1445 1445